^^
Saratoga-Weather Station Historical Data
Daily Summary for June 13, 2021 Units:  Metric    English   Both
Daily Weekly Monthly Yearly Custom
  High: Low: Average:
Temperature: 26.8 °C 13.6 °C 19.9 °C
Dew Point: 13.7 °C 6.8 °C 10.4 °C
Humidity: 81% 29% 58%
Wind Speed: 16.3km/h 0km/h 2.6km/h
Wind Gust: 16.1km/h - -
Wind- - South
Pressure: 1026.1 hPa 1022.4 hPa -
Precipitation: 0.0 mm    
Historical Graphs
 
 
Tabular Data for June 13, 2021
Time Temperature Dew Point Pressure Wind Wind Speed Wind Gust Humidity Rainfall Rate (Hourly) solar
00:03 17.8 °C 13.5 °C 1022.7 hPa West 4.7 km/h 8 km/h 76% 0.0 mm 0 W/m2
00:08 17.8 °C 13.7 °C 1022.7 hPa West 4.7 km/h 6.4 km/h 77% 0.0 mm 0 W/m2
00:13 17.7 °C 13.6 °C 1023.0 hPa West 3.2 km/h 4.8 km/h 77% 0.0 mm 0 W/m2
00:18 17.7 °C 13.6 °C 1023.0 hPa WSW 3.2 km/h 4.8 km/h 77% 0.0 mm 0 W/m2
00:23 17.6 °C 13.5 °C 1023.0 hPa West 3.2 km/h 4.8 km/h 77% 0.0 mm 0 W/m2
00:28 17.5 °C 13.4 °C 1023.0 hPa West 6.4 km/h 6.4 km/h 77% 0.0 mm 0 W/m2
00:33 17.4 °C 13.3 °C 1023.0 hPa West 3.2 km/h 4.8 km/h 77% 0.0 mm 0 W/m2
00:38 17.4 °C 13.3 °C 1023.4 hPa WNW 4.7 km/h 6.4 km/h 77% 0.0 mm 0 W/m2
00:43 17.4 °C 13.1 °C 1023.4 hPa West 1.4 km/h 4.8 km/h 76% 0.0 mm 0 W/m2
00:48 17.4 °C 13.1 °C 1023.4 hPa West 1.4 km/h 4.8 km/h 76% 0.0 mm 0 W/m2
00:53 17.4 °C 13.1 °C 1023.4 hPa Calm   4.8 km/h 76% 0.0 mm 0 W/m2
00:58 17.3 °C 13 °C 1023.4 hPa West 1.4 km/h 1.6 km/h 76% 0.0 mm 0 W/m2
01:03 17.2 °C 12.9 °C 1023.4 hPa NW 1.4 km/h 4.8 km/h 76% 0.0 mm 0 W/m2
01:08 17.1 °C 12.8 °C 1023.4 hPa Calm   1.6 km/h 76% 0.0 mm 0 W/m2
01:13 17 °C 12.7 °C 1023.7 hPa WSW 1.4 km/h 4.8 km/h 76% 0.0 mm 0 W/m2
01:18 16.9 °C 12.6 °C 1023.7 hPa Calm     76% 0.0 mm 0 W/m2
01:23 16.8 °C 12.7 °C 1023.7 hPa Calm     77% 0.0 mm 0 W/m2
01:28 16.7 °C 12.6 °C 1023.7 hPa Calm     77% 0.0 mm 0 W/m2
01:33 16.5 °C 12.5 °C 1023.7 hPa Calm   1.6 km/h 77% 0.0 mm 0 W/m2
01:38 16.4 °C 12.6 °C 1023.7 hPa Calm   3.2 km/h 78% 0.0 mm 0 W/m2
01:43 16.3 °C 12.5 °C 1023.7 hPa Calm   1.6 km/h 78% 0.0 mm 0 W/m2
01:48 16.2 °C 12.6 °C 1023.7 hPa WSW 3.2 km/h 3.2 km/h 79% 0.0 mm 0 W/m2
01:53 16.1 °C 12.3 °C 1023.7 hPa North 1.4 km/h 6.4 km/h 78% 0.0 mm 0 W/m2
01:58 16.2 °C 12.2 °C 1023.7 hPa Calm   4.8 km/h 77% 0.0 mm 0 W/m2
02:03 16.3 °C 12.3 °C 1023.7 hPa West 1.4 km/h 6.4 km/h 77% 0.0 mm 0 W/m2
02:08 16.3 °C 12.3 °C 1023.7 hPa WNW 6.4 km/h 6.4 km/h 77% 0.0 mm 0 W/m2
02:13 16.3 °C 12.1 °C 1023.7 hPa West 1.4 km/h 6.4 km/h 76% 0.0 mm 0 W/m2
02:18 16.3 °C 12.1 °C 1023.7 hPa WNW 1.4 km/h 6.4 km/h 76% 0.0 mm 0 W/m2
02:23 16.3 °C 12.1 °C 1023.7 hPa North 4.7 km/h 4.8 km/h 76% 0.0 mm 0 W/m2
02:28 16.3 °C 12.1 °C 1023.7 hPa Calm   3.2 km/h 76% 0.0 mm 0 W/m2
02:33 16.2 °C 12 °C 1023.7 hPa NNW 1.4 km/h 4.8 km/h 76% 0.0 mm 0 W/m2
02:38 16.2 °C 11.8 °C 1024.0 hPa Calm   4.8 km/h 75% 0.0 mm 0 W/m2
02:43 16.1 °C 11.7 °C 1024.0 hPa Calm   3.2 km/h 75% 0.0 mm 0 W/m2
02:48 16.1 °C 11.7 °C 1024.0 hPa West 4.7 km/h 4.8 km/h 75% 0.0 mm 0 W/m2
02:53 16 °C 11.6 °C 1024.0 hPa NW 1.4 km/h 6.4 km/h 75% 0.0 mm 0 W/m2
02:58 15.9 °C 11.5 °C 1024.0 hPa SW 3.2 km/h 6.4 km/h 75% 0.0 mm 0 W/m2
03:03 16 °C 11.6 °C 1024.0 hPa WSW 1.4 km/h 3.2 km/h 75% 0.0 mm 0 W/m2
03:08 16 °C 11.6 °C 1023.7 hPa WSW 1.4 km/h 6.4 km/h 75% 0.0 mm 0 W/m2
03:13 15.9 °C 11.5 °C 1023.7 hPa WSW 1.4 km/h 6.4 km/h 75% 0.0 mm 0 W/m2
03:18 15.9 °C 11.5 °C 1023.7 hPa Calm     75% 0.0 mm 0 W/m2
03:23 15.8 °C 11.6 °C 1023.7 hPa Calm   6.4 km/h 76% 0.0 mm 0 W/m2
03:28 15.7 °C 11.5 °C 1024.0 hPa Calm     76% 0.0 mm 0 W/m2
03:33 15.5 °C 11.3 °C 1024.0 hPa Calm     76% 0.0 mm 0 W/m2
03:38 15.3 °C 11.3 °C 1024.0 hPa Calm   1.6 km/h 77% 0.0 mm 0 W/m2
03:43 15.2 °C 11.4 °C 1024.0 hPa Calm   1.6 km/h 78% 0.0 mm 0 W/m2
03:48 15 °C 11.2 °C 1024.0 hPa North 1.4 km/h 3.2 km/h 78% 0.0 mm 0 W/m2
03:53 15 °C 11.2 °C 1024.0 hPa ENE 3.2 km/h 6.4 km/h 78% 0.0 mm 0 W/m2
03:58 15.1 °C 11.3 °C 1024.0 hPa Calm   6.4 km/h 78% 0.0 mm 0 W/m2
04:03 15.1 °C 11.3 °C 1024.0 hPa West 1.4 km/h 6.4 km/h 78% 0.0 mm 0 W/m2
04:08 15.1 °C 11.3 °C 1024.0 hPa WNW 3.2 km/h 9.7 km/h 78% 0.0 mm 0 W/m2
04:13 15.1 °C 11.3 °C 1024.0 hPa West 4.7 km/h 6.4 km/h 78% 0.0 mm 0 W/m2
04:18 14.9 °C 11.1 °C 1023.7 hPa WNW 1.4 km/h 6.4 km/h 78% 0.0 mm 0 W/m2
04:23 14.8 °C 11 °C 1023.7 hPa WNW 1.4 km/h 3.2 km/h 78% 0.0 mm 0 W/m2
04:28 14.7 °C 11.1 °C 1023.7 hPa Calm   1.6 km/h 79% 0.0 mm 0 W/m2
04:33 14.6 °C 11 °C 1023.7 hPa South 3.2 km/h 4.8 km/h 79% 0.0 mm 0 W/m2
04:38 14.4 °C 11 °C 1023.7 hPa Calm   1.6 km/h 80% 0.0 mm 0 W/m2
04:43 14.3 °C 10.9 °C 1023.7 hPa WSW 1.4 km/h 3.2 km/h 80% 0.0 mm 0 W/m2
04:48 14.3 °C 10.9 °C 1023.7 hPa East 1.4 km/h 3.2 km/h 80% 0.0 mm 0 W/m2
04:53 14.3 °C 10.7 °C 1023.7 hPa NNW 1.4 km/h 3.2 km/h 79% 0.0 mm 0 W/m2
04:58 14.3 °C 10.7 °C 1023.7 hPa NE 3.2 km/h 6.4 km/h 79% 0.0 mm 0 W/m2
05:03 14.3 °C 10.7 °C 1024.0 hPa NE 1.4 km/h 8 km/h 79% 0.0 mm 0 W/m2
05:08 14.3 °C 10.9 °C 1024.0 hPa North 1.4 km/h 3.2 km/h 80% 0.0 mm 0 W/m2
05:13 14.2 °C 10.8 °C 1024.0 hPa ENE 1.4 km/h 8 km/h 80% 0.0 mm 0 W/m2
05:18 14.2 °C 10.6 °C 1024.0 hPa NE 3.2 km/h 3.2 km/h 79% 0.0 mm 0 W/m2
05:23 14.1 °C 10.7 °C 1024.0 hPa Calm   8 km/h 80% 0.0 mm 0 W/m2
05:28 14.1 °C 10.7 °C 1024.0 hPa SSW 1.4 km/h 1.6 km/h 80% 0.0 mm 0 W/m2
05:33 14 °C 10.6 °C 1024.0 hPa WSW 1.4 km/h 3.2 km/h 80% 0.0 mm 5 W/m2
05:38 13.9 °C 10.5 °C 1024.0 hPa Calm   6.4 km/h 80% 0.0 mm 7 W/m2
05:43 13.8 °C 10.4 °C 1024.0 hPa Calm   4.8 km/h 80% 0.0 mm 9 W/m2
05:48 13.9 °C 10.3 °C 1024.0 hPa Calm   3.2 km/h 79% 0.0 mm 11 W/m2
05:53 13.8 °C 10.2 °C 1024.0 hPa Calm   3.2 km/h 79% 0.0 mm 12 W/m2
05:58 13.8 °C 10.2 °C 1024.4 hPa ESE 1.4 km/h 3.2 km/h 79% 0.0 mm 16 W/m2
06:03 13.8 °C 10.4 °C 1024.4 hPa ESE 1.4 km/h 3.2 km/h 80% 0.0 mm 18 W/m2
06:08 13.7 °C 10.5 °C 1024.4 hPa SE 3.2 km/h 4.8 km/h 81% 0.0 mm 19 W/m2
06:13 13.6 °C 10.4 °C 1024.4 hPa Calm   1.6 km/h 81% 0.0 mm 21 W/m2
06:18 13.6 °C 10.4 °C 1024.4 hPa Calm   4.8 km/h 81% 0.0 mm 23 W/m2
06:23 13.6 °C 10.4 °C 1024.4 hPa East 1.4 km/h 4.8 km/h 81% 0.0 mm 23 W/m2
06:28 13.6 °C 10.2 °C 1024.7 hPa Calm   4.8 km/h 80% 0.0 mm 25 W/m2
06:33 13.6 °C 10.2 °C 1024.7 hPa Calm   1.6 km/h 80% 0.0 mm 26 W/m2
06:38 13.7 °C 10.3 °C 1024.7 hPa Calm   4.8 km/h 80% 0.0 mm 28 W/m2
06:43 13.7 °C 10.1 °C 1024.7 hPa West 4.7 km/h 4.8 km/h 79% 0.0 mm 28 W/m2
06:48 13.8 °C 10.2 °C 1024.7 hPa ESE 1.4 km/h 3.2 km/h 79% 0.0 mm 30 W/m2
06:53 13.9 °C 10.3 °C 1025.1 hPa NNW 1.4 km/h 3.2 km/h 79% 0.0 mm 30 W/m2
06:58 13.9 °C 10.3 °C 1025.1 hPa ENE 1.4 km/h 4.8 km/h 79% 0.0 mm 32 W/m2
07:03 14 °C 10.4 °C 1025.1 hPa NE 1.4 km/h 4.8 km/h 79% 0.0 mm 32 W/m2
07:08 14 °C 10.2 °C 1025.1 hPa WNW 1.4 km/h 3.2 km/h 78% 0.0 mm 33 W/m2
07:13 14.1 °C 10.3 °C 1025.1 hPa ENE 1.4 km/h 4.8 km/h 78% 0.0 mm 33 W/m2
07:18 14.1 °C 10.3 °C 1025.1 hPa Calm   1.6 km/h 78% 0.0 mm 33 W/m2
07:24 14.2 °C 10.4 °C 1025.1 hPa NW 6.4 km/h 6.4 km/h 78% 0.0 mm 35 W/m2
07:29 14.3 °C 10.5 °C 1025.1 hPa NNW 1.4 km/h 9.7 km/h 78% 0.0 mm 35 W/m2
07:34 14.3 °C 10.5 °C 1025.1 hPa NNW 1.4 km/h 4.8 km/h 78% 0.0 mm 37 W/m2
07:39 14.4 °C 10.6 °C 1025.4 hPa West 3.2 km/h 9.7 km/h 78% 0.0 mm 174 W/m2
07:44 14.6 °C 10.6 °C 1025.4 hPa NNW 3.2 km/h 4.8 km/h 77% 0.0 mm 246 W/m2
07:49 14.8 °C 10.8 °C 1025.4 hPa North 1.4 km/h 4.8 km/h 77% 0.0 mm 258 W/m2
07:54 15.1 °C 10.9 °C 1025.7 hPa NW 3.2 km/h 3.2 km/h 76% 0.0 mm 272 W/m2
07:59 15.4 °C 11.2 °C 1025.7 hPa NE 3.2 km/h 4.8 km/h 76% 0.0 mm 285 W/m2
08:04 15.8 °C 11.2 °C 1025.7 hPa Calm   1.6 km/h 74% 0.0 mm 295 W/m2
08:09 16.2 °C 11.1 °C 1025.7 hPa Calm   3.2 km/h 72% 0.0 mm 234 W/m2
08:14 16.1 °C 10.8 °C 1025.7 hPa NNW 3.2 km/h 9.7 km/h 71% 0.0 mm 132 W/m2
08:19 16.2 °C 11.1 °C 1025.7 hPa NE 1.4 km/h 6.4 km/h 72% 0.0 mm 53 W/m2
08:24 16.3 °C 11 °C 1025.7 hPa ENE 1.4 km/h 9.7 km/h 71% 0.0 mm 49 W/m2
08:29 16.6 °C 11.3 °C 1025.7 hPa WNW 3.2 km/h 6.4 km/h 71% 0.0 mm 49 W/m2
08:34 16.6 °C 11.1 °C 1025.7 hPa NNW 3.2 km/h 9.7 km/h 70% 0.0 mm 49 W/m2
08:39 16.6 °C 11.1 °C 1025.7 hPa NNE 1.4 km/h 1.6 km/h 70% 0.0 mm 47 W/m2
08:44 16.7 °C 11.2 °C 1025.7 hPa NW 3.2 km/h 9.7 km/h 70% 0.0 mm 47 W/m2
08:49 16.7 °C 11 °C 1025.7 hPa East 6.4 km/h 6.4 km/h 69% 0.0 mm 47 W/m2
08:54 16.8 °C 11.1 °C 1025.7 hPa East 1.4 km/h 8 km/h 69% 0.0 mm 47 W/m2
08:59 17 °C 11.3 °C 1025.7 hPa WNW 6.4 km/h 6.4 km/h 69% 0.0 mm 47 W/m2
09:04 16.9 °C 11.2 °C 1025.7 hPa ENE 6.4 km/h 9.7 km/h 69% 0.0 mm 47 W/m2
09:09 16.9 °C 11.2 °C 1026.1 hPa NNE 4.7 km/h 6.4 km/h 69% 0.0 mm 84 W/m2
09:14 17.1 °C 11.1 °C 1025.7 hPa NE 3.2 km/h 9.7 km/h 68% 0.0 mm 279 W/m2
09:19 17.3 °C 11.3 °C 1025.7 hPa North 6.4 km/h 6.4 km/h 68% 0.0 mm 483 W/m2
09:24 17.3 °C 11.3 °C 1025.7 hPa ENE 3.2 km/h 6.4 km/h 68% 0.0 mm 513 W/m2
09:29 17.3 °C 11.3 °C 1026.1 hPa ESE 6.4 km/h 9.7 km/h 68% 0.0 mm 533 W/m2
09:34 17.4 °C 11.4 °C 1026.1 hPa ESE 3.2 km/h 12.9 km/h 68% 0.0 mm 550 W/m2
09:39 17.4 °C 11 °C 1026.1 hPa North 3.2 km/h 8 km/h 66% 0.0 mm 563 W/m2
09:44 17.5 °C 11.1 °C 1026.1 hPa ENE 4.7 km/h 9.7 km/h 66% 0.0 mm 571 W/m2
09:49 17.6 °C 10.9 °C 1026.1 hPa NNW 4.7 km/h 8 km/h 65% 0.0 mm 587 W/m2
09:54 17.6 °C 10.7 °C 1026.1 hPa East 3.2 km/h 4.8 km/h 64% 0.0 mm 601 W/m2
09:59 17.8 °C 10.7 °C 1026.1 hPa Calm   6.4 km/h 63% 0.0 mm 617 W/m2
10:04 18 °C 11.1 °C 1026.1 hPa North 1.4 km/h 6.4 km/h 64% 0.0 mm 624 W/m2
10:09 18.1 °C 10.9 °C 1026.1 hPa Calm   4.8 km/h 63% 0.0 mm 49 W/m2
10:14 18.2 °C 10.8 °C 1026.1 hPa East 1.4 km/h 3.2 km/h 62% 0.0 mm 114 W/m2
10:19 18.4 °C 11 °C 1026.1 hPa ENE 4.7 km/h 9.7 km/h 62% 0.0 mm 663 W/m2
10:24 18.5 °C 11.1 °C 1026.1 hPa NW 3.2 km/h 11.3 km/h 62% 0.0 mm 673 W/m2
10:29 18.6 °C 10.9 °C 1026.1 hPa ESE 1.4 km/h 11.3 km/h 61% 0.0 mm 691 W/m2
10:34 18.7 °C 11 °C 1025.7 hPa ENE 4.7 km/h 11.3 km/h 61% 0.0 mm 700 W/m2
10:39 18.8 °C 10.4 °C 1025.7 hPa WNW 4.7 km/h 8 km/h 58% 0.0 mm 710 W/m2
10:44 18.8 °C 10.6 °C 1025.7 hPa East 3.2 km/h 6.4 km/h 59% 0.0 mm 726 W/m2
10:49 19 °C 11.1 °C 1025.7 hPa NNW 4.7 km/h 6.4 km/h 60% 0.0 mm 731 W/m2
10:54 19 °C 10.5 °C 1025.7 hPa Calm   6.4 km/h 58% 0.0 mm 744 W/m2
10:59 19.2 °C 10.5 °C 1025.7 hPa WNW 1.4 km/h 8 km/h 57% 0.0 mm 763 W/m2
11:04 19.3 °C 10.3 °C 1025.7 hPa ENE 4.7 km/h 6.4 km/h 56% 0.0 mm 770 W/m2
11:09 19.5 °C 10.8 °C 1025.7 hPa NE 1.4 km/h 6.4 km/h 57% 0.0 mm 780 W/m2
11:14 19.7 °C 10.7 °C 1025.7 hPa ESE 3.2 km/h 4.8 km/h 56% 0.0 mm 793 W/m2
11:19 19.8 °C 10.5 °C 1025.7 hPa NW 1.4 km/h 6.4 km/h 55% 0.0 mm 796 W/m2
11:24 19.8 °C 10.5 °C 1025.7 hPa WNW 6.4 km/h 9.7 km/h 55% 0.0 mm 800 W/m2
11:29 19.9 °C 11.1 °C 1025.7 hPa NNW 6.4 km/h 9.7 km/h 57% 0.0 mm 814 W/m2
11:34 20.1 °C 10.5 °C 1025.7 hPa WNW 3.2 km/h 12.9 km/h 54% 0.0 mm 824 W/m2
11:39 20.1 °C 10.8 °C 1025.7 hPa NE 9.7 km/h 9.7 km/h 55% 0.0 mm 831 W/m2
11:44 20.4 °C 10.8 °C 1025.7 hPa ENE 6.4 km/h 9.7 km/h 54% 0.0 mm 846 W/m2
11:49 20.7 °C 10.8 °C 1025.7 hPa NNE 6.4 km/h 9.7 km/h 53% 0.0 mm 853 W/m2
11:54 20.8 °C 10.9 °C 1025.7 hPa NNW 1.4 km/h 8 km/h 53% 0.0 mm 858 W/m2
11:59 20.7 °C 10.8 °C 1025.7 hPa West 6.4 km/h 8 km/h 53% 0.0 mm 865 W/m2
12:04 20.9 °C 11.2 °C 1025.7 hPa NW 1.4 km/h 6.4 km/h 54% 0.0 mm 875 W/m2
12:09 21.3 °C 11 °C 1025.7 hPa ESE 1.4 km/h 4.8 km/h 52% 0.0 mm 879 W/m2
12:14 21.5 °C 10 °C 1025.7 hPa ESE 1.4 km/h 11.3 km/h 48% 0.0 mm 879 W/m2
12:19 21.4 °C 11.1 °C 1025.7 hPa North 4.7 km/h 8 km/h 52% 0.0 mm 882 W/m2
12:24 21.5 °C 11.2 °C 1025.7 hPa North 6.4 km/h 9.7 km/h 52% 0.0 mm 888 W/m2
12:29 21.5 °C 11.2 °C 1025.7 hPa NW 16.3 km/h 16.1 km/h 52% 0.0 mm 898 W/m2
12:34 21.4 °C 10.8 °C 1025.7 hPa East 4.7 km/h 11.3 km/h 51% 0.0 mm 902 W/m2
12:39 21.7 °C 11.4 °C 1025.7 hPa East 4.7 km/h 8 km/h 52% 0.0 mm 912 W/m2
12:44 22 °C 11.1 °C 1025.7 hPa ENE 6.4 km/h 14.5 km/h 50% 0.0 mm 918 W/m2
12:49 22.2 °C 11.3 °C 1025.7 hPa ENE 11.1 km/h 12.9 km/h 50% 0.0 mm 919 W/m2
12:54 22.2 °C 10.7 °C 1025.7 hPa ENE 4.7 km/h 14.5 km/h 48% 0.0 mm 926 W/m2
12:59 22 °C 10.2 °C 1025.7 hPa ENE 7.9 km/h 11.3 km/h 47% 0.0 mm 932 W/m2
13:04 21.8 °C 10 °C 1025.7 hPa NE 3.2 km/h 8 km/h 47% 0.0 mm 939 W/m2
13:09 21.8 °C 10.3 °C 1025.7 hPa ESE 6.4 km/h 11.3 km/h 48% 0.0 mm 932 W/m2
13:14 22 °C 10.2 °C 1025.4 hPa NNW 13 km/h 12.9 km/h 47% 0.0 mm 939 W/m2
13:19 22 °C 9.2 °C 1025.4 hPa WNW 4.7 km/h 4.8 km/h 44% 0.0 mm 942 W/m2
13:24 22.1 °C 9.9 °C 1025.4 hPa NNW 4.7 km/h 6.4 km/h 46% 0.0 mm 942 W/m2
13:29 22.3 °C 10.1 °C 1025.4 hPa NW 6.4 km/h 8 km/h 46% 0.0 mm 939 W/m2
13:34 22.4 °C 10.2 °C 1025.4 hPa NE 3.2 km/h 3.2 km/h 46% 0.0 mm 942 W/m2
13:39 22.6 °C 10.4 °C 1025.4 hPa North 7.9 km/h 8 km/h 46% 0.0 mm 944 W/m2
13:44 22.8 °C 10.2 °C 1025.4 hPa ENE 4.7 km/h 11.3 km/h 45% 0.0 mm 944 W/m2
13:49 22.9 °C 10 °C 1025.4 hPa NNE 1.4 km/h 4.8 km/h 44% 0.0 mm 939 W/m2
13:54 23 °C 9.7 °C 1025.4 hPa NNW 3.2 km/h 11.3 km/h 43% 0.0 mm 935 W/m2
13:59 23.1 °C 8.8 °C 1025.4 hPa NNW 6.4 km/h 14.5 km/h 40% 0.0 mm 946 W/m2
14:04 23.1 °C 8.8 °C 1025.4 hPa East 4.7 km/h 6.4 km/h 40% 0.0 mm 944 W/m2
14:09 23.2 °C 8.9 °C 1025.4 hPa SW 3.2 km/h 14.5 km/h 40% 0.0 mm 942 W/m2
14:14 23.1 °C 9.5 °C 1025.1 hPa ESE 3.2 km/h 3.2 km/h 42% 0.0 mm 944 W/m2
14:19 23.3 °C 8.6 °C 1025.1 hPa NE 4.7 km/h 16.1 km/h 39% 0.0 mm 951 W/m2
14:24 23.4 °C 7.5 °C 1025.1 hPa NNE 3.2 km/h 4.8 km/h 36% 0.0 mm 947 W/m2
14:29 23.8 °C 9.4 °C 1025.1 hPa NW 4.7 km/h 6.4 km/h 40% 0.0 mm 946 W/m2
14:34 23.7 °C 9.7 °C 1025.1 hPa Calm   4.8 km/h 41% 0.0 mm 942 W/m2
14:39 23.8 °C 10.1 °C 1024.7 hPa SE 3.2 km/h 6.4 km/h 42% 0.0 mm 930 W/m2
14:44 24.1 °C 10 °C 1024.7 hPa WSW 1.4 km/h 4.8 km/h 41% 0.0 mm 930 W/m2
14:49 24.2 °C 8.6 °C 1024.7 hPa ENE 1.4 km/h 6.4 km/h 37% 0.0 mm 937 W/m2
14:54 24.2 °C 8.6 °C 1024.7 hPa NNW 6.4 km/h 8 km/h 37% 0.0 mm 930 W/m2
14:59 24.4 °C 9.5 °C 1024.7 hPa WSW 1.4 km/h 3.2 km/h 39% 0.0 mm 930 W/m2
15:04 24.6 °C 9.7 °C 1024.7 hPa North 4.7 km/h 8 km/h 39% 0.0 mm 923 W/m2
15:09 24.6 °C 8.9 °C 1024.7 hPa East 3.2 km/h 4.8 km/h 37% 0.0 mm 919 W/m2
15:14 24.5 °C 8.4 °C 1024.7 hPa SSE 3.2 km/h 6.4 km/h 36% 0.0 mm 912 W/m2
15:19 24.4 °C 9.2 °C 1024.4 hPa NE 4.7 km/h 4.8 km/h 38% 0.0 mm 905 W/m2
15:24 24.6 °C 9.3 °C 1024.4 hPa NW 4.7 km/h 9.7 km/h 38% 0.0 mm 891 W/m2
15:29 24.8 °C 9.1 °C 1024.4 hPa North 4.7 km/h 9.7 km/h 37% 0.0 mm 889 W/m2
15:34 24.8 °C 8.7 °C 1024.4 hPa WNW 1.4 km/h 3.2 km/h 36% 0.0 mm 886 W/m2
15:39 25.1 °C 9.4 °C 1024.4 hPa NW 1.4 km/h 9.7 km/h 37% 0.0 mm 881 W/m2
15:45 25.2 °C 8.2 °C 1024.4 hPa NNW 3.2 km/h 12.9 km/h 34% 0.0 mm 867 W/m2
15:50 25.2 °C 8.6 °C 1024.4 hPa Calm   9.7 km/h 35% 0.0 mm 861 W/m2
15:55 25.3 °C 9.2 °C 1024.4 hPa NNE 1.4 km/h 12.9 km/h 36% 0.0 mm 856 W/m2
16:00 25.3 °C 8.7 °C 1024.4 hPa WSW 1.4 km/h 4.8 km/h 35% 0.0 mm 847 W/m2
16:05 25.3 °C 9.2 °C 1024.4 hPa West 1.4 km/h 6.4 km/h 36% 0.0 mm 837 W/m2
16:10 25.3 °C 8.3 °C 1024.4 hPa ESE 6.4 km/h 6.4 km/h 34% 0.0 mm 826 W/m2
16:15 25.4 °C 8 °C 1024.4 hPa ENE 3.2 km/h 9.7 km/h 33% 0.0 mm 816 W/m2
16:20 25.6 °C 8.1 °C 1024.0 hPa East 3.2 km/h 11.3 km/h 33% 0.0 mm 805 W/m2
16:25 25.6 °C 7.7 °C 1024.0 hPa East 4.7 km/h 6.4 km/h 32% 0.0 mm 796 W/m2
16:30 25.6 °C 8.6 °C 1024.0 hPa NNE 6.4 km/h 14.5 km/h 34% 0.0 mm 786 W/m2
16:35 25.6 °C 8.6 °C 1024.0 hPa NNW 1.4 km/h 6.4 km/h 34% 0.0 mm 775 W/m2
16:40 25.8 °C 8.3 °C 1024.0 hPa ENE 4.7 km/h 11.3 km/h 33% 0.0 mm 763 W/m2
16:45 25.9 °C 8.4 °C 1024.0 hPa East 1.4 km/h 8 km/h 33% 0.0 mm 752 W/m2
16:50 26 °C 7.6 °C 1024.0 hPa WSW 4.7 km/h 8 km/h 31% 0.0 mm 740 W/m2
16:55 25.8 °C 8.3 °C 1024.0 hPa ESE 4.7 km/h 11.3 km/h 33% 0.0 mm 731 W/m2
17:00 25.9 °C 9.3 °C 1024.0 hPa NNW 1.4 km/h 1.6 km/h 35% 0.0 mm 719 W/m2
17:05 26.2 °C 6.8 °C 1024.0 hPa WNW 1.4 km/h 8 km/h 29% 0.0 mm 705 W/m2
17:10 26.3 °C 8.7 °C 1024.0 hPa NE 7.9 km/h 9.7 km/h 33% 0.0 mm 687 W/m2
17:15 26.2 °C 8.7 °C 1023.7 hPa SE 1.4 km/h 3.2 km/h 33% 0.0 mm 680 W/m2
17:20 26.2 °C 9.5 °C 1023.7 hPa East 3.2 km/h 9.7 km/h 35% 0.0 mm 661 W/m2
17:25 26.3 °C 9.2 °C 1023.7 hPa SE 3.2 km/h 6.4 km/h 34% 0.0 mm 650 W/m2
17:30 26.3 °C 8.3 °C 1023.7 hPa NE 3.2 km/h 4.8 km/h 32% 0.0 mm 640 W/m2
17:35 26.3 °C 9.2 °C 1023.7 hPa ENE 3.2 km/h 8 km/h 34% 0.0 mm 626 W/m2
17:40 26.4 °C 10.1 °C 1023.7 hPa ESE 3.2 km/h 12.9 km/h 36% 0.0 mm 613 W/m2
17:45 26.4 °C 9.3 °C 1023.7 hPa ENE 6.4 km/h 12.9 km/h 34% 0.0 mm 599 W/m2
17:50 26.3 °C 8.7 °C 1023.7 hPa ESE 1.4 km/h 6.4 km/h 33% 0.0 mm 584 W/m2
17:55 26.3 °C 9.2 °C 1023.4 hPa SW 1.4 km/h 12.9 km/h 34% 0.0 mm 573 W/m2
18:00 26.7 °C 10.8 °C 1023.4 hPa ESE 4.7 km/h 9.7 km/h 37% 0.0 mm 557 W/m2
18:05 26.8 °C 10.1 °C 1023.4 hPa ESE 4.7 km/h 6.4 km/h 35% 0.0 mm 543 W/m2
18:10 26.7 °C 10 °C 1023.4 hPa WNW 1.4 km/h 9.7 km/h 35% 0.0 mm 527 W/m2
18:15 26.6 °C 9.9 °C 1023.4 hPa East 11.1 km/h 16.1 km/h 35% 0.0 mm 510 W/m2
18:20 26.3 °C 10 °C 1023.4 hPa Calm   6.4 km/h 36% 0.0 mm 483 W/m2
18:25 26.3 °C 10 °C 1023.4 hPa West 4.7 km/h 16.1 km/h 36% 0.0 mm 448 W/m2
18:30 26.3 °C 10 °C 1023.4 hPa Calm   3.2 km/h 36% 0.0 mm 415 W/m2
18:35 26.4 °C 9.7 °C 1023.0 hPa North 1.4 km/h 6.4 km/h 35% 0.0 mm 378 W/m2
18:40 26.6 °C 10.7 °C 1023.0 hPa NNW 1.4 km/h 4.8 km/h 37% 0.0 mm 353 W/m2
18:45 26.5 °C 10.2 °C 1023.0 hPa East 3.2 km/h 9.7 km/h 36% 0.0 mm 325 W/m2
18:50 26.5 °C 10.2 °C 1023.0 hPa NE 3.2 km/h 8 km/h 36% 0.0 mm 297 W/m2
18:55 26.5 °C 10.2 °C 1023.0 hPa Calm   9.7 km/h 36% 0.0 mm 278 W/m2
19:00 26.4 °C 9.7 °C 1023.0 hPa NW 3.2 km/h 6.4 km/h 35% 0.0 mm 276 W/m2
19:05 26.4 °C 8.8 °C 1023.0 hPa North 9.7 km/h 9.7 km/h 33% 0.0 mm 290 W/m2
19:10 26.3 °C 10 °C 1023.0 hPa NE 4.7 km/h 6.4 km/h 36% 0.0 mm 316 W/m2
19:15 26.3 °C 9.6 °C 1023.0 hPa East 1.4 km/h 4.8 km/h 35% 0.0 mm 330 W/m2
19:20 26.5 °C 9.8 °C 1023.0 hPa WNW 1.4 km/h 4.8 km/h 35% 0.0 mm 323 W/m2
19:25 26.4 °C 9.3 °C 1023.0 hPa NNE 6.4 km/h 8 km/h 34% 0.0 mm 309 W/m2
19:30 26.3 °C 9.2 °C 1023.0 hPa NE 4.7 km/h 4.8 km/h 34% 0.0 mm 290 W/m2
19:35 26.5 °C 10.2 °C 1023.0 hPa ENE 3.2 km/h 4.8 km/h 36% 0.0 mm 255 W/m2
19:40 26.3 °C 9.6 °C 1023.0 hPa ESE 1.4 km/h 6.4 km/h 35% 0.0 mm 216 W/m2
19:45 26.2 °C 9.9 °C 1023.0 hPa NNW 1.4 km/h 3.2 km/h 36% 0.0 mm 190 W/m2
19:50 26.2 °C 9.5 °C 1022.7 hPa East 1.4 km/h 6.4 km/h 35% 0.0 mm 188 W/m2
19:55 26.1 °C 10.7 °C 1022.7 hPa NE 3.2 km/h 4.8 km/h 38% 0.0 mm 190 W/m2
20:00 26.1 °C 9.4 °C 1022.7 hPa NW 4.7 km/h 6.4 km/h 35% 0.0 mm 185 W/m2
20:05 25.9 °C 9.7 °C 1022.7 hPa ESE 1.4 km/h 4.8 km/h 36% 0.0 mm 169 W/m2
20:10 25.8 °C 9.6 °C 1022.7 hPa Calm   3.2 km/h 36% 0.0 mm 155 W/m2
20:15 25.7 °C 9.1 °C 1022.7 hPa NE 1.4 km/h 6.4 km/h 35% 0.0 mm 141 W/m2
20:20 25.6 °C 9 °C 1022.7 hPa WNW 3.2 km/h 4.8 km/h 35% 0.0 mm 128 W/m2
20:25 25.7 °C 9.1 °C 1022.7 hPa NW 1.4 km/h 3.2 km/h 35% 0.0 mm 114 W/m2
20:30 25.6 °C 8.6 °C 1022.7 hPa Calm   4.8 km/h 34% 0.0 mm 97 W/m2
20:35 25.5 °C 8.5 °C 1022.7 hPa NE 1.4 km/h 3.2 km/h 34% 0.0 mm 79 W/m2
20:40 25.4 °C 8.4 °C 1022.7 hPa Calm   3.2 km/h 34% 0.0 mm 79 W/m2
20:45 25.4 °C 8.4 °C 1022.7 hPa NNW 1.4 km/h 4.8 km/h 34% 0.0 mm 67 W/m2
20:50 25.4 °C 9.2 °C 1022.7 hPa East 1.4 km/h 3.2 km/h 36% 0.0 mm 63 W/m2
20:55 25.2 °C 9.5 °C 1022.7 hPa Calm   4.8 km/h 37% 0.0 mm 53 W/m2
21:00 25 °C 10.5 °C 1022.7 hPa ESE 1.4 km/h 1.6 km/h 40% 0.0 mm 44 W/m2
21:05 24.9 °C 10.7 °C 1022.7 hPa Calm   1.6 km/h 41% 0.0 mm 37 W/m2
21:10 24.4 °C 9.2 °C 1022.7 hPa ENE 1.4 km/h 4.8 km/h 38% 0.0 mm 18 W/m2
21:15 24.1 °C 10 °C 1022.4 hPa ENE 1.4 km/h 1.6 km/h 41% 0.0 mm 16 W/m2
21:20 23.7 °C 10.7 °C 1022.7 hPa South 1.4 km/h 4.8 km/h 44% 0.0 mm 14 W/m2
21:25 23.2 °C 10.6 °C 1022.4 hPa South 1.4 km/h 1.6 km/h 45% 0.0 mm 12 W/m2
21:30 22.7 °C 10.5 °C 1022.4 hPa South 3.2 km/h 3.2 km/h 46% 0.0 mm 9 W/m2
21:35 22.3 °C 10.4 °C 1022.4 hPa Calm   1.6 km/h 47% 0.0 mm 7 W/m2
21:40 22.1 °C 9.9 °C 1022.4 hPa Calm   3.2 km/h 46% 0.0 mm 5 W/m2
21:46 21.8 °C 10.6 °C 1022.4 hPa East 1.4 km/h 1.6 km/h 49% 0.0 mm 0 W/m2
21:51 21.6 °C 10.7 °C 1022.4 hPa East 1.4 km/h 1.6 km/h 50% 0.0 mm 0 W/m2
21:56 21.2 °C 10.7 °C 1022.7 hPa Calm   1.6 km/h 51% 0.0 mm 0 W/m2
22:01 20.8 °C 10.6 °C 1022.7 hPa ESE 1.4 km/h 1.6 km/h 52% 0.0 mm 0 W/m2
22:06 20.5 °C 10.3 °C 1022.7 hPa Calm   1.6 km/h 52% 0.0 mm 0 W/m2
22:11 20.2 °C 10.6 °C 1022.7 hPa ESE 1.4 km/h 1.6 km/h 54% 0.0 mm 0 W/m2
22:16 19.9 °C 10.6 °C 1022.7 hPa Calm     55% 0.0 mm 0 W/m2
22:21 19.6 °C 10.3 °C 1022.4 hPa SW 1.4 km/h 4.8 km/h 55% 0.0 mm 0 W/m2
22:26 19.5 °C 10.2 °C 1022.4 hPa Calm   1.6 km/h 55% 0.0 mm 0 W/m2
22:31 19.3 °C 10 °C 1022.4 hPa SW 1.4 km/h 3.2 km/h 55% 0.0 mm 0 W/m2
22:36 19.2 °C 10.2 °C 1022.4 hPa Calm   1.6 km/h 56% 0.0 mm 0 W/m2
22:41 19.1 °C 10.4 °C 1022.4 hPa SW 1.4 km/h 3.2 km/h 57% 0.0 mm 0 W/m2
22:46 18.9 °C 9.9 °C 1022.7 hPa Calm   1.6 km/h 56% 0.0 mm 0 W/m2
22:51 18.8 °C 9.8 °C 1022.4 hPa SW 1.4 km/h 3.2 km/h 56% 0.0 mm 0 W/m2
22:56 18.7 °C 9.7 °C 1022.4 hPa Calm   3.2 km/h 56% 0.0 mm 0 W/m2
23:01 18.7 °C 9.7 °C 1022.4 hPa SW 1.4 km/h 3.2 km/h 56% 0.0 mm 0 W/m2
23:06 18.6 °C 9.4 °C 1022.4 hPa Calm   3.2 km/h 55% 0.0 mm 0 W/m2
23:11 18.4 °C 9.5 °C 1022.4 hPa SW 1.4 km/h 1.6 km/h 56% 0.0 mm 0 W/m2
23:16 18.4 °C 9.5 °C 1022.4 hPa SW 3.2 km/h 3.2 km/h 56% 0.0 mm 0 W/m2
23:21 18.3 °C 9.6 °C 1022.4 hPa Calm   3.2 km/h 57% 0.0 mm 0 W/m2
23:26 18.2 °C 9.5 °C 1022.7 hPa SW 1.4 km/h 3.2 km/h 57% 0.0 mm 0 W/m2
23:31 18.1 °C 9.4 °C 1022.7 hPa SW 1.4 km/h 3.2 km/h 57% 0.0 mm 0 W/m2
23:36 17.9 °C 9.5 °C 1022.7 hPa SW 1.4 km/h 1.6 km/h 58% 0.0 mm 0 W/m2
23:41 17.7 °C 9.6 °C 1022.4 hPa Calm   3.2 km/h 59% 0.0 mm 0 W/m2
23:46 17.6 °C 9.5 °C 1022.4 hPa Calm     59% 0.0 mm 0 W/m2
23:51 17.3 °C 9.7 °C 1022.4 hPa Calm   1.6 km/h 61% 0.0 mm 0 W/m2
23:56 17.2 °C 9.6 °C 1022.4 hPa Calm   3.2 km/h 61% 0.0 mm 0 W/m2
Juneau County Weather
Compliments of Weather Underground - 4 mb